Regional Weather Roundup
Issued by NWS Albany, NY

Home | Current Version | Previous Version | Text Only | Print | Product List | Glossary On
Versions: 1 2 3 4 5 6 7 8 9 10 11 12 13 14 15 16 17 18 19 20 21 22 23 24 25 26 27 28 29 30 31 32 33 34 35 36 37 38 39 40 41 42 43 44 45 46 47 48 49 50
000
ASUS41 KALY 220310
RWRALY

NEW YORK STATE HOURLY WEATHER ROUNDUP
NATIONAL WEATHER SERVICE ALBANY NY
1100 PM EDT THU AUG 21 2014

NOTE: "FAIR" INDICATES FEW OR NO CLOUDS BELOW 12,000 FEET WITH NO
SIGNIFICANT WEATHER AND/OR NO OBSTRUCTIONS TO VISIBILITY.

NYZ032-033-038>043-046>054-057>066-NYZ062>081-220400-
EAST


CITY           SKY/WX    TMP DP  RH WIND       PRES   REMARKS
ALBANY         CLOUDY    71  62  73 S6        30.02S
GLENS FALLS    RAIN      64  62  93 NE6       30.04R FOG
POUGHKEEPSIE   CLOUDY    68  65  90 S5        30.04R
NEWBURGH       PTCLDY    66  63  88 SE7       30.06R
MONTGOMERY     CLOUDY    65  63  93 CALM      30.05R
WHITE PLAINS   LGT RAIN  68  66  93 NE3       30.06R FOG
ISLIP          CLOUDY    71  63  75 SE10      30.03S
NEW YORK CITY  CLOUDY    73  64  73 S13       30.02F THUNDER
CENTRAL PARK   LGT RAIN  72  63  73 CALM      30.05F
$$

NYZ005>009-017-018-044>046-055-056-220400-
CENTRAL


CITY           SKY/WX    TMP DP  RH WIND       PRES   REMARKS
FULTON         CLOUDY    68  65  90 CALM      29.97S
SYRACUSE       CLOUDY    68  67  96 CALM      29.98R
ROME           CLOUDY    68  67  96 E7        29.99S
ELMIRA         PTCLDY    68  66  93 CALM      29.99F
BINGHAMTON     MOCLDY    64  62  93 W5        30.02S
MONTICELLO     CLOUDY    64  64 100 S6        30.08R
$$

NYZ026>034-041>043-220400-
NORTH


CITY           SKY/WX    TMP DP  RH WIND       PRES   REMARKS
WATERTOWN      MOCLDY    68  62  81 CALM      29.96R
FORT DRUM      NOT AVBL
MASSENA        PTCLDY    65  65 100 NE8       29.99S
SARANAC LAKE   CLOUDY    62  60  93 E7        30.03S
PLATTSBURGH    LGT RAIN  63  61  93 CALM      30.04S
$$

NYZ001>004-010>016-019>021-220400-
WEST


CITY           SKY/WX    TMP DP  RH WIND       PRES   REMARKS
NIAGARA FALLS  PTCLDY    69  65  86 W3        29.96S
BUFFALO        PTCLDY    71  67  87 SW8       29.97S
DUNKIRK        MOCLDY    68  65  90 SW6       29.99S
JAMESTOWN      MOCLDY    66  63  88 SW3       30.03F
WELLSVILLE     CLEAR     66  62  87 N3        30.05F
ROCHESTER      MOCLDY    70  66  87 CALM      29.97S
PENN YAN       MOCLDY    67  66  97 CALM      30.00S
$$

             KEY
       WCI = WIND CHILL INDEX
       VSB = VISIBILITY
       HX  = HEAT INDEX
$$


USA.gov is the U.S. government's official web portal to all federal, state and local government web resources and services.